[[{"header":{"parameterUnit":"m.s-1","parameterCategory":1,"la1":30.2991,"la2":30.254,"lo1":-89.0895,"lo2":-89.0444,"dy":0.0017,"dx":0.0017,"nx":28,"ny":28,"refTime":"2024-04-27T09:00:00:Z","depth":0,"parameterNumber":2,"parameterNumberName":"U-component_of_WINDS"},"data":[0,0,0,0,0,0,0,0,0,0,0,0,0,0,0,0,0,0,0,0,0,0,0,0,0,0,0,0,0,0,0,0,0,0,0,0,0,0,0,0,0,0,0,0,0,0,0,0,0,0,0,0,0,0,0,0,0,0,-7.7644,-7.7645,0,-7.7715,-7.7716,-7.7717,-7.7634,-7.7631,-7.7628,-7.7625,-7.7692,-7.7697,-7.7701,0,0,0,0,0,0,0,0,0,0,0,0,0,-7.7432,-7.7436,-7.7644,-7.7645,-7.7646,-7.7715,-7.7716,-7.7717,-7.7634,-7.7631,-7.7627,-7.7623,-7.7691,-7.7696,-7.7702,0,0,0,0,0,0,0,0,0,0,0,0,0,-7.7515,-7.7437,-7.7644,-7.7613,-7.7611,-7.7715,-7.7716,-7.7717,-7.7635,-7.763,-7.7626,-7.7622,-7.7689,-7.7696,-7.7703,-7.7839,0,0,-7.7724,-7.7727,0,0,0,0,0,0,0,0,-7.7511,-7.7523,-7.7617,-7.7615,-7.7613,-7.7661,-7.7666,-7.7758,-7.7636,-7.7626,-7.7625,-7.7619,-7.7685,-7.7692,-7.7716,-7.7842,-7.7845,-7.7725,-7.7729,-7.7732,-7.7734,0,0,0,0,0,0,0,-7.7505,-7.752,-7.7672,-7.7618,-7.7616,-7.7594,-7.7601,-7.7683,-7.768,-7.7626,-7.7621,-7.763,-7.7683,-7.7709,-7.7717,-7.7846,-7.7724,-7.7731,-7.7735,-7.7738,-7.8086,-7.809,0,0,0,0,0,0,-7.7504,-7.7515,-7.767,-7.7674,-7.755,-7.7602,-7.7609,-7.765,-7.7679,-7.7679,-7.7634,-7.7626,-7.7699,-7.7708,-7.7719,-7.7877,-7.7732,-7.7738,-7.7742,-7.8081,-7.8087,-7.8092,0,0,0,0,0,0,-7.7499,-7.7518,-7.7667,-7.7593,-7.7611,-7.761,-7.7657,-7.7654,-7.768,-7.7685,-7.7684,-7.7661,-7.7696,-7.7709,-7.7809,-7.7879,-7.7742,-7.7748,-7.8075,-7.8082,-7.8089,-7.8198,0,0,0,0,0,0,-7.7494,-7.7517,-7.757,-7.7595,-7.7615,-7.7758,-7.7661,-7.7659,-7.7693,-7.7683,-7.771,-7.771,-7.7693,-7.7799,-7.7816,-7.7886,-7.7753,-7.8068,-7.8078,-7.8087,-7.8188,-7.8208,-7.8226,0,0,0,0,0,-7.7486,-7.7596,-7.7573,-7.7592,-7.7681,-7.7762,-7.7773,-7.7753,-7.7699,-7.775,-7.7754,-7.7709,-7.787,-7.781,-7.7829,-7.7901,-7.8064,-7.8075,-7.8086,-7.8179,-7.8204,-7.8225,0,0,0,0,0,0,-7.7576,-7.7599,-7.7573,-7.7695,-7.7728,-7.7748,-7.7812,-7.778,-7.7827,-7.7815,-7.7787,-7.7794,-7.7901,-7.7912,-7.7845,-7.8034,-7.7957,-7.7973,-7.8022,-7.8046,-7.8064,-7.8057,-7.7759,0,0,0,0,0,-7.7611,-7.7677,-7.7693,-7.7799,-7.7817,-7.7813,-7.7847,-7.7829,-7.7861,-7.7873,-7.7885,-7.7916,-7.7973,-7.801,-7.8064,-7.8191,-7.8194,-7.825,-7.8269,-7.8285,-7.8297,-7.8363,-7.8387,-7.8129,-7.8129,-7.8129,0,0,-7.7682,-7.7703,-7.7745,-7.7818,-7.784,-7.7907,-7.7824,-7.7899,-7.7947,-7.7884,-7.7979,-7.7989,-7.8022,-7.8136,-7.8187,-7.8149,-7.8369,-7.8299,-7.8311,-7.8315,-7.8377,-7.8401,-7.8423,-7.8137,-7.8136,-7.8134,0,0,-7.7844,-7.7869,-7.7958,-7.7984,-7.8021,-7.8018,-7.804,-7.8066,-7.807,-7.8167,-7.812,-7.8178,-7.8278,-7.8302,-7.8328,-7.8503,-7.8462,-7.8521,-7.8617,-7.8682,-7.8702,-7.872,-7.8779,-7.8801,-7.8535,-7.8535,-7.8535,0,-7.7926,-7.8027,-7.8008,-7.8086,-7.8118,-7.8068,-7.8157,-7.8183,-7.8235,-7.8257,-7.8215,-7.8338,-7.8357,-7.8475,-7.8518,-7.8542,-7.8564,-7.8515,-7.8701,-7.8719,-7.8735,-7.8791,-7.8813,-7.8541,-7.8541,-7.854,-7.8539,0,-7.8125,-7.8196,-7.8264,-7.8317,-7.8357,-7.8441,-7.8433,-7.8476,-7.8456,-7.8457,-7.8555,-7.8577,-7.8632,-7.866,-7.8641,-7.8776,-7.8751,-7.8706,-7.8627,-7.8766,-7.8818,-7.884,-7.8551,-7.8548,-7.8547,-7.8545,0,0,-7.8341,-7.8385,-7.841,-7.8433,-7.8472,-7.8525,-7.8607,-7.8663,-7.8699,-7.8738,-7.8803,-7.889,-7.8849,-7.8878,-7.8861,-7.8919,-7.9053,-7.8866,-7.8867,-7.8897,-7.92,-7.923,-7.9255,-7.9029,-7.9033,-7.9036,-7.9195,0,-7.8501,-7.8643,-7.8629,-7.8763,-7.8826,-7.8781,-7.8852,-7.8882,-7.8886,-7.894,-7.8944,-7.9004,-7.8947,-7.8964,-7.902,-7.9025,-7.9112,-7.9014,-7.9085,-7.9088,-7.9073,-7.9283,-7.9315,-7.9464,-7.9216,-7.9219,-7.9222,0,-7.8705,-7.8753,-7.8893,-7.8922,-7.8948,-7.9012,-7.9062,-7.9116,-7.9149,-7.9148,-7.9183,-7.9156,-7.9236,-7.9161,-7.9269,-7.9202,-7.9232,-7.9239,-7.9244,-7.9245,-7.916,-7.9285,-7.9511,-7.9532,-7.9254,-7.9252,-7.9249,0,-7.8844,-7.8944,-7.904,-7.9062,-7.9099,-7.9144,-7.9161,-7.9191,-7.9226,-7.9271,-7.9292,-7.9346,-7.9373,-7.9415,-7.9403,-7.935,-7.9513,-7.9437,-7.9511,-7.9511,-7.9543,-7.954,-7.9772,-7.9571,-7.957,-7.957,-7.9569,0,-7.9021,-7.9107,-7.9102,-7.9161,-7.9257,-7.9241,-7.9336,-7.9347,-7.9374,-7.9433,-7.9399,-7.9454,-7.9438,-7.9492,-7.9484,-7.9573,-7.9587,-7.9587,-7.9582,-7.9587,-7.9586,-7.9602,-7.9589,-7.9576,-7.9574,-7.9573,-7.9572,0,-7.9189,-7.919,-7.9292,-7.932,-7.9329,-7.9398,-7.9421,-7.9475,-7.9478,-7.9553,-7.957,-7.9574,-7.9637,-7.9631,-7.9701,-7.9695,-7.9805,-7.9791,-7.9793,-7.9788,-7.9861,-7.9853,-8.0107,-8.0138,-7.9921,-7.9923,-7.9925,0,-7.93,-7.9365,-7.9402,-7.9439,-7.946,-7.9522,-7.9558,-7.9546,-7.9585,-7.9629,-7.9678,-7.9738,-7.9785,-7.9887,-7.9895,-7.9948,-7.9932,-8.0018,-7.9939,-7.9942,-7.9928,-7.9923,-7.9928,-8.0031,-8.0034,-8.0036,-8.0037,0,-7.9494,-7.9492,-7.9546,-7.9601,-7.9646,-7.9688,-7.9727,-7.9759,-7.9751,-7.9796,-7.9861,-7.9898,-7.9971,-8.0029,-8.0081,-8.0096,-8.0065,-8.0063,-8.0082,-8.0085,-8.0082,-8.008,-7.983,-8.0056,-8.0054,-8.0052,-8.0051,-8.0051,-7.9634,-7.969,-7.9724,-7.9786,-7.9814,-7.9851,-7.9904,-7.9915,-7.9969,-8.0028,-8.0018,-8.009,-8.0122,-8.0187,-8.0209,-8.0264,-8.0232,-8.0261,-8.0267,-8.0274,-8.028,-8.0078,-8.0274,-8.0273,-8.0273,-8.0272,-8.0272,0,-7.9823,-7.9844,-7.9901,-7.9957,-8.0005,-7.9976,-8.0017,-8.0058,-8.0123,-8.0157,-8.0204,-8.0278,-8.0336,-8.035,-8.0405,-8.0446,-8.0433,-8.046,-8.0454,-8.0458,-8.0307,-8.0283,-8.047,-8.047,-8.047,-8.047,-8.047,-8.047,-7.9927,-8.0019,-8.0021,-8.0127,-8.0147,-8.0218,-8.0244,-8.0277,-8.0304,-8.0389,-8.0437,-8.0447,-8.0472,-8.0529,-8.058,-8.0583,-8.0603,-8.0635,-8.0632,-8.0489,-8.0469,-8.045,-8.0427,-8.0641,-8.0641,-8.0777,-8.0779,-8.078]},{"header":{"parameterUnit":"m.s-1","parameterCategory":1,"la1":30.2991,"la2":30.254,"lo1":-89.0895,"lo2":-89.0444,"dy":0.0017,"dx":0.0017,"nx":28,"ny":28,"refTime":"2024-04-27T09:00:00:Z","depth":0,"parameterNumber":3,"parameterNumberName":"V-component_of_WINDS"},"data":[0,0,0,0,0,0,0,0,0,0,0,0,0,0,0,0,0,0,0,0,0,0,0,0,0,0,0,0,0,0,0,0,0,0,0,0,0,0,0,0,0,0,0,0,0,0,0,0,0,0,0,0,0,0,0,0,0,0,4.713,4.713,0,4.717,4.7171,4.7171,4.7131,4.7129,4.7128,4.7126,4.7163,4.7166,4.7168,0,0,0,0,0,0,0,0,0,0,0,0,0,4.7015,4.7018,4.713,4.713,4.7131,4.717,4.7171,4.7171,4.7131,4.7129,4.7128,4.7126,4.7163,4.7165,4.7168,0,0,0,0,0,0,0,0,0,0,0,0,0,4.7061,4.7019,4.713,4.7116,4.7115,4.717,4.7171,4.7171,4.7132,4.7129,4.7127,4.7125,4.7162,4.7165,4.7169,4.7238,0,0,4.718,4.7182,0,0,0,0,0,0,0,0,4.7059,4.7065,4.7117,4.7117,4.7116,4.7143,4.7144,4.7193,4.7132,4.7125,4.7126,4.7124,4.7158,4.7162,4.7175,4.724,4.7241,4.718,4.7182,4.7184,4.7185,0,0,0,0,0,0,0,4.7056,4.7063,4.7145,4.7118,4.7117,4.7107,4.7111,4.7153,4.7154,4.7126,4.7123,4.7128,4.7157,4.7171,4.7175,4.7242,4.718,4.7183,4.7186,4.7187,4.7367,4.737,0,0,0,0,0,0,4.7054,4.7061,4.7144,4.7147,4.7081,4.7111,4.7115,4.7137,4.7154,4.7154,4.713,4.7126,4.7166,4.7171,4.7176,4.7259,4.7184,4.7187,4.719,4.7365,4.7368,4.7371,0,0,0,0,0,0,4.7052,4.7062,4.7143,4.7103,4.7113,4.7115,4.714,4.7139,4.7152,4.7157,4.7157,4.7144,4.7164,4.7171,4.7224,4.7259,4.7189,4.7192,4.7362,4.7366,4.7369,4.7424,0,0,0,0,0,0,4.7049,4.7062,4.7088,4.7104,4.7115,4.719,4.7142,4.7141,4.7159,4.7155,4.717,4.7171,4.7163,4.7218,4.7227,4.7263,4.7195,4.7358,4.7364,4.7368,4.7419,4.743,4.7438,0,0,0,0,0,4.7045,4.7101,4.709,4.71,4.7149,4.7192,4.7198,4.719,4.7162,4.7189,4.7193,4.717,4.7255,4.7224,4.7234,4.7271,4.7356,4.7362,4.7368,4.7415,4.7427,4.7438,0,0,0,0,0,0,4.7087,4.7103,4.709,4.7153,4.7172,4.7185,4.7218,4.7203,4.7228,4.7223,4.721,4.7214,4.7269,4.7276,4.7241,4.734,4.7301,4.7309,4.7333,4.7345,4.7355,4.7351,4.7198,0,0,0,0,0,4.7104,4.7139,4.715,4.7205,4.7215,4.7216,4.7234,4.7226,4.7244,4.7251,4.7259,4.7276,4.7307,4.7327,4.7355,4.7421,4.7424,4.7452,4.7461,4.7469,4.7476,4.7511,4.7524,4.739,4.739,4.739,0,0,4.7138,4.7151,4.7173,4.7214,4.7227,4.7263,4.7222,4.7261,4.7288,4.7257,4.7307,4.7314,4.7332,4.7392,4.7418,4.7399,4.7514,4.7477,4.7483,4.7485,4.7519,4.7531,4.7543,4.7394,4.7393,4.7393,0,0,4.7218,4.7233,4.728,4.7295,4.7317,4.7318,4.7329,4.7346,4.7349,4.74,4.7378,4.7409,4.7462,4.7477,4.7491,4.7581,4.7561,4.7591,4.764,4.7675,4.7685,4.7695,4.7726,4.7738,4.7598,4.7598,4.7598,0,4.7258,4.7312,4.7305,4.7347,4.7365,4.7343,4.739,4.7405,4.7434,4.7447,4.7425,4.7492,4.7503,4.7566,4.7589,4.7601,4.7613,4.7587,4.7685,4.7694,4.7703,4.7732,4.7744,4.7601,4.7601,4.76,4.76,0,4.7359,4.7398,4.7433,4.7465,4.7487,4.7531,4.7531,4.7554,4.7546,4.7549,4.7601,4.7614,4.7645,4.766,4.7651,4.7722,4.771,4.7687,4.7647,4.7719,4.7747,4.7758,4.7606,4.7605,4.7604,4.7603,0,0,4.7463,4.7494,4.7507,4.7521,4.7546,4.7575,4.7619,4.7651,4.7671,4.7693,4.7729,4.7776,4.7756,4.7772,4.7765,4.7796,4.7867,4.777,4.777,4.7786,4.7946,4.7962,4.7975,4.7855,4.7857,4.7859,4.7944,0,4.7544,4.7622,4.7619,4.7691,4.7726,4.7706,4.7745,4.7763,4.7768,4.7798,4.7802,4.7836,4.7807,4.7817,4.7847,4.7852,4.7898,4.7846,4.7887,4.7888,4.7881,4.799,4.8006,4.8086,4.7955,4.7957,4.7958,0,4.7648,4.7676,4.7753,4.7774,4.7788,4.7823,4.7853,4.7883,4.7904,4.7905,4.7925,4.7914,4.7958,4.7919,4.7979,4.7943,4.796,4.7966,4.7968,4.797,4.7926,4.7993,4.8111,4.8122,4.7975,4.7974,4.7973,0,4.7716,4.7773,4.7826,4.784,4.7865,4.789,4.7902,4.7921,4.7942,4.7968,4.7981,4.8012,4.8028,4.8052,4.8049,4.8021,4.811,4.8071,4.8111,4.8111,4.8128,4.8127,4.8249,4.8143,4.8142,4.8142,4.8142,0,4.7805,4.7852,4.7857,4.789,4.7942,4.7939,4.799,4.7999,4.8017,4.805,4.8035,4.8067,4.8062,4.8093,4.8091,4.8141,4.8149,4.815,4.8149,4.8151,4.8151,4.816,4.8154,4.8145,4.8145,4.8144,4.8144,0,4.7888,4.7894,4.7951,4.7972,4.7979,4.8016,4.8034,4.8064,4.8069,4.8112,4.8121,4.8128,4.8165,4.8165,4.8206,4.8205,4.8266,4.8259,4.8259,4.8257,4.8297,4.8293,4.8428,4.8445,4.8329,4.833,4.8331,0,4.7944,4.7981,4.8007,4.8029,4.8043,4.8079,4.8101,4.8099,4.8122,4.8151,4.8178,4.8214,4.8242,4.8301,4.8309,4.834,4.8333,4.8379,4.8337,4.8339,4.8332,4.833,4.8333,4.8386,4.8387,4.8388,4.8389,0,4.8043,4.8044,4.8077,4.8112,4.8139,4.8165,4.8189,4.8208,4.821,4.8236,4.8275,4.8297,4.834,4.8376,4.8407,4.8418,4.8403,4.8402,4.8413,4.8414,4.8413,4.8413,4.8279,4.8398,4.8397,4.8397,4.8396,4.8396,4.8113,4.8145,4.8169,4.8206,4.8226,4.825,4.828,4.829,4.8323,4.8359,4.8356,4.8399,4.842,4.8461,4.8475,4.8508,4.8492,4.8508,4.8511,4.8515,4.8519,4.841,4.8514,4.8513,4.8513,4.8513,4.8513,0,4.821,4.8226,4.826,4.8297,4.8326,4.8314,4.8341,4.8365,4.8404,4.8426,4.8455,4.85,4.8535,4.8547,4.8581,4.8604,4.8599,4.8613,4.861,4.8613,4.8532,4.8518,4.8617,4.8617,4.8617,4.8617,4.8617,4.8617,4.8264,4.8317,4.8322,4.8385,4.84,4.8443,4.846,4.8482,4.85,4.8551,4.8581,4.8589,4.8608,4.8643,4.8675,4.8677,4.869,4.8707,4.8706,4.8629,4.8619,4.8609,4.8596,4.871,4.871,4.8785,4.8786,4.8786]}]]